| time (UTC) | temp C | wind direction | speed KPH | gust KPH | rain 1hr cm | rain 24hr cm | rain mn cm | humidity % | barometer mb |
| 20260510223041 | 13 | 348 | 11.3 | 22.5 | 0.00 | 0.56 | 0.56 | 36 | 1014.5 |
| 20260510221539 | 13 | 317 | 14.5 | 37.0 | 0.00 | 0.56 | 0.56 | 37 | 1014.2 |
| 20260510220039 | 14 | 310 | 9.7 | 32.2 | 0.00 | 0.56 | 0.56 | 39 | 1014.0 |
| 20260510214546 | 13 | 302 | 8.0 | 29.0 | 0.00 | 0.56 | 0.56 | 38 | 1013.8 |
| 20260510213035 | 14 | 322 | 11.3 | 29.0 | 0.00 | 0.56 | 0.56 | 36 | 1013.5 |
| 20260510211533 | 14 | 271 | 9.7 | 29.0 | 0.00 | 0.56 | 0.56 | 37 | 1013.5 |
| 20260510210034 | 15 | 257 | 16.1 | 29.0 | 0.00 | 0.56 | 0.56 | 37 | 1013.4 |
| 20260510204536 | 15 | 318 | 14.5 | 25.7 | 0.00 | 0.56 | 0.56 | 38 | 1013.1 |
| 20260510203027 | 15 | 350 | 8.0 | 29.0 | 0.00 | 0.56 | 0.56 | 42 | 1013.0 |
| 20260510201525 | 14 | 236 | 8.0 | 24.1 | 0.00 | 0.56 | 0.56 | 43 | 1013.2 |
| 20260510200024 | 15 | 214 | 4.8 | 19.3 | 0.00 | 0.56 | 0.56 | 47 | 1013.0 |
| 20260510194525 | 15 | 229 | 11.3 | 29.0 | 0.00 | 0.56 | 0.56 | 48 | 1013.0 |
| 20260510193018 | 14 | 276 | 12.9 | 22.5 | 0.00 | 0.56 | 0.56 | 47 | 1013.0 |
| 20260510191516 | 14 | 241 | 8.0 | 22.5 | 0.00 | 0.56 | 0.56 | 51 | 1013.2 |
| 20260510190014 | 14 | 279 | 9.7 | 25.7 | 0.00 | 0.56 | 0.56 | 52 | 1013.3 |
| 20260510184511 | 13 | 231 | 11.3 | 19.3 | 0.00 | 0.56 | 0.56 | 53 | 1013.0 |
| 20260510183009 | 13 | 305 | 14.5 | 32.2 | 0.00 | 0.56 | 0.56 | 51 | 1013.2 |
| 20260510181505 | 13 | 244 | 6.4 | 17.7 | 0.00 | 0.56 | 0.56 | 66 | 1013.2 |
| 20260510180003 | 12 | 199 | 4.8 | 9.7 | 0.00 | 0.56 | 0.56 | 73 | 1013.1 |
| 20260510174559 | 12 | 199 | 3.2 | 14.5 | 0.00 | 0.56 | 0.56 | 75 | 1013.0 |
| 20260510173102 | 11 | 173 | 1.6 | 9.7 | 0.00 | 0.56 | 0.56 | 78 | 1012.9 |
| 20260510171556 | 10 | 267 | 1.6 | 6.4 | 0.00 | 0.56 | 0.56 | 76 | 1013.2 |
| 20260510170051 | 9 | 265 | 3.2 | 11.3 | 0.00 | 0.56 | 0.56 | 79 | 1013.3 |
| 20260510164554 | 8 | 287 | 6.4 | 16.1 | 0.00 | 0.56 | 0.56 | 80 | 1013.2 |
| 20260510163048 | 8 | 315 | 11.3 | 19.3 | 0.25 | 0.56 | 0.56 | 83 | 1013.2 |
| 20260510161546 | 7 | 339 | 3.2 | 16.1 | 0.28 | 0.56 | 0.56 | 89 | 1013.3 |
| 20260510160045 | 8 | 312 | 6.4 | 22.5 | 0.46 | 0.56 | 0.56 | 88 | 1013.1 |
| 20260510154548 | 8 | 334 | 12.9 | 25.7 | 0.48 | 0.56 | 0.56 | 91 | 1012.9 |
| 20260510153040 | 9 | 286 | 6.4 | 17.7 | 0.23 | 0.30 | 0.30 | 91 | 1012.8 |
| 20260510151542 | 10 | 311 | 1.6 | 6.4 | 0.20 | 0.28 | 0.28 | 90 | 1012.1 |
| 20260510150046 | 10 | 134 | 0.0 | 0.0 | 0.03 | 0.10 | 0.10 | 89 | 1012.1 |
| 20260510144534 | 10 | 134 | 0.0 | 4.8 | 0.00 | 0.08 | 0.08 | 88 | 1011.9 |
| 20260510143025 | 10 | 134 | 1.6 | 6.4 | 0.00 | 0.08 | 0.08 | 89 | 1012.0 |
| 20260510141523 | 10 | 134 | 0.0 | 6.4 | 0.00 | 0.08 | 0.08 | 89 | 1012.0 |
| 20260510140022 | 10 | 170 | 1.6 | 8.0 | 0.00 | 0.08 | 0.08 | 90 | 1012.0 |
| 20260510134521 | 10 | 174 | 3.2 | 8.0 | 0.00 | 0.08 | 0.08 | 89 | 1011.9 |
| 20260510133019 | 10 | 158 | 0.0 | 8.0 | 0.00 | 0.08 | 0.08 | 89 | 1011.8 |
| 20260510131518 | 10 | 119 | 4.8 | 9.7 | 0.00 | 0.08 | 0.08 | 89 | 1011.8 |
| 20260510130019 | 10 | 125 | 4.8 | 9.7 | 0.03 | 0.08 | 0.08 | 89 | 1011.7 |
| 20260510124526 | 10 | 152 | 3.2 | 11.3 | 0.03 | 0.08 | 0.08 | 89 | 1011.8 |
| 20260510123014 | 10 | 169 | 4.8 | 12.9 | 0.03 | 0.08 | 0.08 | 89 | 1011.6 |
| 20260510121510 | 10 | 186 | 1.6 | 8.0 | 0.03 | 0.08 | 0.08 | 90 | 1011.5 |
| 20260510120015 | 10 | 190 | 3.2 | 8.0 | 0.00 | 0.05 | 0.05 | 90 | 1011.5 |
| 20260510114505 | 9 | 126 | 3.2 | 8.0 | 0.00 | 0.05 | 0.05 | 91 | 1011.3 |
| 20260510113057 | 8 | 132 | 3.2 | 6.4 | 0.00 | 0.05 | 0.05 | 91 | 1011.5 |
| 20260510111604 | 8 | 172 | 0.0 | 3.2 | 0.00 | 0.05 | 0.05 | 91 | 1011.4 |
| 20260510110059 | 7 | 181 | 1.6 | 4.8 | 0.00 | 0.05 | 0.05 | 91 | 1010.9 |
| 20260510104553 | 7 | 181 | 0.0 | 6.4 | 0.00 | 0.05 | 0.05 | 91 | 1011.0 |
| 20260510103059 | 7 | 152 | 4.8 | 11.3 | 0.00 | 0.05 | 0.05 | 91 | 1010.3 |
| 20260510101550 | 7 | 128 | 1.6 | 4.8 | 0.00 | 0.05 | 0.05 | 91 | 1010.7 |
| 20260510100052 | 7 | 132 | 3.2 | 6.4 | 0.00 | 0.05 | 0.05 | 91 | 1010.5 |
| 20260510094602 | 7 | 125 | 3.2 | 11.3 | 0.00 | 0.05 | 0.05 | 91 | 1010.3 |
| 20260510093104 | 7 | 117 | 6.4 | 14.5 | 0.00 | 0.05 | 0.05 | 91 | 1010.1 |
| 20260510091546 | 8 | 100 | 8.0 | 14.5 | 0.00 | 0.05 | 0.05 | 91 | 1009.9 |
| 20260510090048 | 8 | 98 | 6.4 | 16.1 | 0.00 | 0.05 | 0.05 | 91 | 1010.1 |
| 20260510084544 | 8 | 105 | 4.8 | 9.7 | 0.03 | 0.05 | 0.05 | 91 | 1010.1 |
| 20260510083052 | 8 | 180 | 4.8 | 8.0 | 0.05 | 0.05 | 0.05 | 91 | 1010.5 |
| 20260510081541 | 8 | 187 | 4.8 | 8.0 | 0.05 | 0.05 | 0.05 | 91 | 1010.6 |
| 20260510080037 | 8 | 115 | 3.2 | 8.0 | 0.05 | 0.05 | 0.05 | 91 | 1010.3 |
| 20260510074536 | 8 | 169 | 1.6 | 4.8 | 0.03 | 0.03 | 0.03 | 91 | 1010.5 |
| 20260510073038 | 8 | 167 | 3.2 | 8.0 | 0.00 | 0.00 | 0.00 | 91 | 1010.6 |
| 20260510071536 | 8 | 169 | 1.6 | 9.7 | 0.00 | 0.00 | 0.00 | 91 | 1010.7 |
| 20260510070030 | 8 | 186 | 1.6 | 6.4 | 0.00 | 0.00 | 0.00 | 91 | 1010.7 |
| 20260510064531 | 8 | 142 | 3.2 | 6.4 | 0.00 | 0.00 | 0.00 | 90 | 1010.4 |
| 20260510063029 | 7 | 132 | 3.2 | 8.0 | 0.00 | 0.00 | 0.00 | 90 | 1010.4 |
| 20260510061533 | 7 | 159 | 4.8 | 8.0 | 0.00 | 0.00 | 0.00 | 90 | 1010.6 |
| 20260510060038 | 7 | 140 | 3.2 | 9.7 | 0.00 | 0.00 | 0.00 | 90 | 1010.5 |
| 20260510054536 | 7 | 179 | 1.6 | 20.9 | 0.00 | 0.00 | 0.00 | 90 | 1010.6 |
| 20260510053025 | 7 | 182 | 0.0 | 11.3 | 0.00 | 0.00 | 0.00 | 90 | 1010.7 |
| 20260510051525 | 7 | 194 | 6.4 | 11.3 | 0.00 | 0.00 | 0.00 | 90 | 1010.7 |
| 20260510050023 | 7 | 123 | 9.7 | 24.1 | 0.00 | 0.00 | 0.00 | 90 | 1010.8 |
| 20260510044525 | 7 | 172 | 3.2 | 12.9 | 0.00 | 0.00 | 0.00 | 90 | 1010.8 |
| 20260510043024 | 7 | 106 | 9.7 | 22.5 | 0.00 | 0.00 | 0.00 | 90 | 1010.6 |
| 20260510041520 | 7 | 150 | 9.7 | 19.3 | 0.00 | 0.00 | 0.00 | 90 | 1010.6 |
| 20260510040016 | 7 | 161 | 4.8 | 12.9 | 0.00 | 0.00 | 0.00 | 90 | 1010.8 |
| 20260510034520 | 7 | 198 | 6.4 | 16.1 | 0.00 | 0.00 | 0.00 | 90 | 1011.2 |
| 20260510033013 | 7 | 161 | 6.4 | 17.7 | 0.00 | 0.00 | 0.00 | 90 | 1010.9 |
| 20260510031511 | 7 | 173 | 6.4 | 12.9 | 0.00 | 0.00 | 0.00 | 89 | 1010.9 |
| 20260510030017 | 7 | 142 | 6.4 | 19.3 | 0.00 | 0.00 | 0.00 | 89 | 1011.0 |
| 20260510024509 | 7 | 171 | 4.8 | 12.9 | 0.00 | 0.00 | 0.00 | 89 | 1011.2 |
| 20260510023007 | 7 | 190 | 4.8 | 14.5 | 0.00 | 0.00 | 0.00 | 89 | 1011.3 |
| 20260510021507 | 7 | 140 | 3.2 | 12.9 | 0.00 | 0.00 | 0.00 | 88 | 1011.2 |
| 20260510020006 | 7 | 161 | 4.8 | 19.3 | 0.00 | 0.00 | 0.00 | 88 | 1011.2 |
| 20260510014507 | 7 | 131 | 4.8 | 19.3 | 0.00 | 0.00 | 0.00 | 88 | 1011.5 |
| 20260510013007 | 7 | 159 | 6.4 | 22.5 | 0.00 | 0.00 | 0.00 | 88 | 1011.5 |
| 20260510011507 | 7 | 152 | 9.7 | 16.1 | 0.00 | 0.00 | 0.00 | 88 | 1011.4 |
| 20260510010005 | 7 | 122 | 8.0 | 16.1 | 0.00 | 0.00 | 0.00 | 87 | 1011.6 |
| 20260510004502 | 7 | 148 | 6.4 | 16.1 | 0.00 | 0.00 | 0.00 | 87 | 1011.6 |
| 20260510003002 | 7 | 180 | 4.8 | 17.7 | 0.00 | 0.00 | 0.00 | 87 | 1011.6 |
| 20260510001501 | 7 | 267 | 3.2 | 9.7 | 0.00 | 0.00 | 0.00 | 87 | 1011.5 |
| 20260510000004 | 7 | 140 | 6.4 | 19.3 | 0.00 | 0.00 | 0.00 | 86 | 1011.3 |
| 20260509234502 | 7 | 146 | 4.8 | 14.5 | 0.00 | 0.00 | 0.00 | 86 | 1011.5 |
| 20260509233059 | 7 | 186 | 6.4 | 19.3 | 0.00 | 0.00 | 0.00 | 86 | 1011.3 |
| 20260509231605 | 7 | 117 | 4.8 | 11.3 | 0.00 | 0.00 | 0.00 | 85 | 1011.4 |
| 20260509230100 | 7 | 133 | 1.6 | 12.9 | 0.00 | 0.00 | 0.00 | 85 | 1011.5 |
| 20260509224601 | 7 | 178 | 1.6 | 11.3 | 0.00 | 0.00 | 0.00 | 85 | 1011.7 |